This is the latest recevied weather packets stored in our database for station/object WV6L-13. If no packets are shown the sender has not sent any weather packets the latest 10 day(s).
| Time | Temp. | Humidity | Pressure | Rain* | Wind** | Luminosity | Snow |
|---|---|---|---|---|---|---|---|
| 1777693495 | 22.22° C | 17% | 924.9 hPa | - | - | - | - |
| 1777693195 | 22.78° C | 17% | 925 hPa | - | - | - | - |
| 1777692895 | 23.33° C | 17% | 924.9 hPa | - | - | - | - |
| 1777692594 | 23.33° C | 17% | 924.8 hPa | - | - | - | - |
| 1777692294 | 23.33° C | 17% | 924.7 hPa | - | - | - | - |
| 1777691994 | 23.89° C | 17% | 924.6 hPa | - | - | - | - |
| 1777691695 | 23.89° C | 16% | 924.5 hPa | - | - | - | - |
| 1777691395 | 23.89° C | 16% | 924.5 hPa | - | - | - | - |
| 1777691095 | 24.44° C | 16% | 924.4 hPa | - | - | - | - |
| 1777690795 | 24.44° C | 16% | 924.5 hPa | - | - | - | - |
| 1777690495 | 24.44° C | 16% | 924.6 hPa | - | - | - | - |
| 1777690195 | 25° C | 16% | 924.2 hPa | - | - | - | - |
| 1777689895 | 25° C | 16% | 924.3 hPa | - | - | - | - |
| 1777689594 | 25° C | 16% | 924.3 hPa | - | - | - | - |
| 1777689295 | 25.56° C | 16% | 924.4 hPa | - | - | - | - |
| 1777688995 | 25.56° C | 16% | 924.3 hPa | - | - | - | - |
| 1777688695 | 25.56° C | 15% | 924.1 hPa | - | - | - | - |
| 1777688394 | 26.11° C | 15% | 924.1 hPa | - | - | - | - |
| 1777687795 | 26.67° C | 15% | 924.1 hPa | - | - | - | - |
| 1777674300 | 27.22° C | 15% | 924.9 hPa | - | - | - | - |
| 1777673995 | 27.22° C | 15% | 924.9 hPa | - | - | - | - |
| 1777673095 | 28.33° C | 15% | 924.9 hPa | - | - | - | - |
| 1777672795 | 27.22° C | 15% | 924.9 hPa | - | - | - | - |
| 1777671595 | 27.22° C | 15% | 925 hPa | - | - | - | - |
| 1777670995 | 27.22° C | 15% | 925.2 hPa | - | - | - | - |
* Rain since midnight (hover to see other rain measurements)
** Current wind speed in m/s (hover to see current wind gust speed)